Other Public Products
Issued by NWS Grand Forks, ND

Home | Current Version | Previous Version | Text Only | Print | Product List | Glossary On
Versions: 1 2 3 4 5 6 7 8 9 10 11 12 13 14 15 16 17 18 19 20 21 22 23 24 25 26 27 28 29 30 31 32 33 34 35 36 37 38 39 40 41 42 43 44 45 46 47 48 49 50
000
FPUS83 KFGF 231431
OPUFGF
PRAIRIE TO PINES WEATHER ROUNDUP
NATIONAL WEATHER SERVICE EASTERN NORTH DAKOTA/GRAND FORKS ND
900 AM CDT FRI JUN 23 2017

 **SATELLITE DATA USED TO AUGMENT SKY COVER AT AUTOMATED STATIONS**
 *****  WEATHER ACROSS EASTERN NORTH DAKOTA  *****

CITY           SKY/WX    TMP DP  RH WIND       PRES   REMARKS
GRAND FORKS    CLOUDY    59  53  80 NW20G25   29.83R
GRAND FORKS AF CLOUDY    58  50  74 N16       29.84R
GRAND CITY NWS NOT AVBL
BUXTON           N/A     60  54  81 NW21        N/A
DEVILS LAKE    CLOUDY    55  46  71 NW23      29.91R
FARGO          CLOUDY    61  51  70 NW18G28   29.85R
WAHPETON ARPT  CLOUDY    57  52  82 NW15G26   29.87R
$$

 *****  WEATHER ACROSS CENTRAL AND WESTERN NORTH DAKOTA  *****

CITY           SKY/WX    TMP DP  RH WIND       PRES   REMARKS
JAMESTOWN      CLOUDY    56  46  69 NW23G33   29.93R
BISMARCK       PTSUNNY   58  42  55 NW20G31   30.05R
MINOT          CLOUDY    54  40  59 W22G32    30.02R
MINOT AFB      CLOUDY    53  41  62 NW22      30.01R
GARRISON         N/A     51  39  63 NW26G37   30.04R
WILLISTON      FAIR      54  39  57 NW17      30.14R
DICKINSON      FAIR      51  38  60 NW21G30   30.12R
HETTINGER      FAIR      54  34  46 NW26G36   30.16R
$$

 *****  OTHER OBSERVATIONS NORTHEAST NORTH DAKOTA  *****

CITY           SKY/WX    TMP DP  RH WIND       PRES   REMARKS
WALHALLA       NOT AVBL
LANGDON        CLOUDY    55  50  82 NW16G23   29.88R
CAVALIER       CLOUDY    57  50  77 NW21G28   29.83R
GRAFTON        CLOUDY    57  54  88 NW21      29.85R
CANDO          NOT AVBL
FORT TOTTEN      N/A     55  47  74 NW9       29.95S
ROLLA            N/A     54  45  71 NW23G31   29.93R
RUGBY          NOT AVBL
 ***** THE ABOVE OBSERVATIONS ARE NON NWS ARE NOT QUALITY
        CONTROLLED AND MAY MIS-REPORT RAIN FOR SNOW...
$$

 *****  OTHER OBSERVATIONS SOUTHEAST NORTH DAKOTA *****

CITY           SKY/WX    TMP DP  RH WIND       PRES   REMARKS
COOPERSTOWN    CLOUDY    57  50  77 NW23G36   29.90R
VALLEY CITY    CLOUDY    57  50  77 NW20G26   29.92R
OAKES          NOT AVBL
GWINNER        PTSUNNY   61  48  63 W17G28    29.92R
SHEYENNE NWR     N/A     61  51  69 NW15      29.95S
BUFFALO          N/A     43  49 100 NW20        N/A
WYNDMERE       NOT AVBL
 ***** THE ABOVE OBSERVATIONS ARE NON NWS ARE NOT QUALITY
       CONTROLLED AND MAY MIS-REPORT RAIN FOR SNOW...
$$

  *****  WEATHER ACROSS NORTHERN MINNESOTA  *****

CITY           SKY/WX    TMP DP  RH WIND       PRES   REMARKS
FLAG ISLAND    CLOUDY    57  52  82 NW20      29.70R
WARROAD        CLOUDY    59  54  82 W13G18    29.73S
ROSEAU           N/A     61  54  77 NW16G22   29.74S
HALLOCK        CLOUDY    57  52  82 NW22      29.81R
THF RVR FALLS  CLOUDY    58  52  80 NW20G26   29.79R
HALSTAD          N/A     60  50  69 NW17        N/A
FOSSTON        CLOUDY    57  52  82 NW13G21   29.80R
BAUDETTE       CLOUDY    58  52  80 NW13      29.70R
WASKISH        CLOUDY    57  52  82 W13G21    29.73R
CROOKSTON      FAIR      61  54  77 N21G26    29.82R
$$
  *****  WEATHER ACROSS CENTRAL AND WEST MINNESOTA  *****

CITY           SKY/WX    TMP DP  RH WIND       PRES   REMARKS
BEMIDJI        CLOUDY    58  51  76 NW14G24   29.77R
PARK RAPIDS    PTSUNNY   62  48  60 NW18G29   29.79R
WADENA         PTSUNNY   61  52  72 NW18      29.81R
DETROIT LAKES  FAIR      61  52  72 NW20G25   29.83S
MOORHEAD       CLOUDY    61  52  72 NW20      29.86R
FERGUS FALLS   CLOUDY    61  54  77 NW20G25   29.83R
ELBOW LAKE     CLOUDY    59  55  85 W17G24    29.86R
MORRIS MN      PTSUNNY   61  55  82 NW17G24   29.86R
STAPLES        FAIR      64  48  55 NW17G25   29.80R
WHEATON        CLOUDY    61  52  72 NW17G26   29.90S
$$
  *****  WEATHER ELSEWHERE ACROSS MINNESOTA  *****

CITY           SKY/WX    TMP DP  RH WIND       PRES   REMARKS
DULUTH         PTSUNNY   59  51  75 NW15      29.67R
INTRNTL FALLS  LGT RAIN  56  50  80 NW14G25   29.66R
ELY            PTSUNNY   57  46  67 W17G25    29.63R
CLOQUET        PTSUNNY   61  46  59 W15G24    29.71R
BRAINERD       FAIR      61  51  70 NW16G22   29.78R
HIBBING        PTSUNNY   57  49  74 NW13G23   29.67R
ALEXANDRIA     CLOUDY    60  52  74 NW17G24   29.85R
SAINT CLOUD    FAIR      64  52  64 W15       29.79R
MINNEAPOLIS    FAIR      65  50  58 NW17      29.78R
$$

  *****  WEATHER ACROSS SOUTH DAKOTA  *****

CITY           SKY/WX    TMP DP  RH WIND       PRES   REMARKS
SIOUX FALLS    PTSUNNY   62  52  69 NW23G29   29.96S
BROOKINGS      FAIR      60  51  72 NW23G31   29.94R
WATERTOWN      CLOUDY    58  52  80 NW18G30   29.93F
HURON          PTSUNNY   61  50  67 NW28G37   29.99F
SISSETON         N/A     62  51  67 NW24      29.89R
ABERDEEN       CLOUDY    59  48  67 NW18G29   29.99R
MITCHELL       PTSUNNY   62  50  64 NW21      30.01F
PIERRE         CLOUDY    57  46  66 N14       30.10R
MOBRIDGE       CLOUDY    59  43  55 NW24G31   30.04R
RAPID CITY     FAIR      55  38  52 NW21G30   30.21R
$$

  *****  SOME WEATHER IN NEARBY STATES *****

CITY           SKY/WX    TMP DP  RH WIND       PRES   REMARKS
GLASGOW MT     CLOUDY    50  40  68 NW6       30.22S
GREAT FALLS MT CLOUDY    48  38  68 SW6       30.32R
CHEYENNE WY    PTSUNNY   48  36  63 NE9       30.31S
SCOTTSBLUFF NE CLOUDY    56  39  53 NW10      30.25S
OMAHA NE       PTSUNNY   67  49  52 NW16      29.95R
DES MOINES IA  FAIR      73  56  54 N5        29.85F
DAVENPORT IA   FAIR      70  61  73 N8        29.78R
CHICAGO IL     CLOUDY    69  62  78 N6        29.70S
EAU CLAIRE WI  FAIR      65  56  72 W8        29.73R
LA CROSSE WI   FAIR      70  60  70 SW6       29.74R
$$

  *****  SOME NATIONAL WEATHER *****

CITY           SKY/WX    TMP DP  RH WIND       PRES   REMARKS
LA GUARDIA NY  CLOUDY    83  73  72 S10       29.78F
RALEIGH NC     CLOUDY    77  74  90 SW14      29.99F
ATLANTA GA     PTSUNNY   78  72  81 S13       30.02S
NEW ORLEANS LA PTSUNNY   83  77  82 S14       29.93R HX  92
OKLAHOMA CITY  FAIR      82  70  66 VRB5      29.80S
ALBUQUERQUE NM FAIR      76  23  14 N8        30.08R
SALT LAKE CITY SUNNY     66  37  34 SE7       30.15R
LOS ANGELES CA CLOUDY    65  62  90 NW7       29.90R FOG
BOISE ID       FAIR      55  38  52 VRB3      30.20R
SEATTLE WA     FAIR      60  49  66 N7        30.23S
$$

*** WEATHER ACROSS MANITOBA...SASKATCHEWAN AND ONTARIO ***
                ***ONTARIO***

CITY           SKY/WX    TMP DP  RH WIND       PRES   REMARKS
GERALDTON      PTSUNNY   57  52  82 NW3       29.53S
THUNDER BAY    PTSUNNY   66  48  52 NW12G21   29.54S
SIOUX LOOKOUT  PTSUNNY   59  52  77 NW8       29.59R
TORONTO        LGT RAIN  70  66  88 S6        29.61F
BIG TROUT LK   SUNNY     61  48  63 E6        29.62R
PICKLE LAKE    PTSUNNY   59  48  67 N2        29.55R
DRYDEN         PTSUNNY   57  52  82 NW8       29.62R
KENORA         PTSUNNY   57  50  77 W8G17     29.68R
$$
                *** MANITOBA***

CITY           SKY/WX    TMP DP  RH WIND       PRES   REMARKS
BRANDON        PTSUNNY   52  43  71 NW18G30   29.91R
DAUPHIN        MOSUNNY   54  43  66 NW17G24   29.88R
ISLAND LAKE    CLOUDY    55  52  88 NE8       29.68R
PILOT MOUND      N/A     54  46  76 NW21G29     N/A
THE PAS        DRIZZLE   46  45  93 NW17      29.87R FOG
THOMPSON       CLOUDY    46  41  81 NE16      29.84R
WINNIPEG       PTSUNNY   57  52  82 NW24      29.78R
LYNN LAKE      CLOUDY    46  39  76 NE12      29.97R
CHURCHILL      PTSUNNY   43  37  81 N13       29.93
GILLAM         CLOUDY    46  43  87 NE18G28   29.82R
$$
                ***SASKATCHEWAN***

CITY           SKY/WX    TMP DP  RH WIND       PRES   REMARKS
ESTEVAN        MOSUNNY   50  43  76 NW21G28   30.07R
KINDERSLEY     PTSUNNY   48  43  81 W10       30.20S
LLOYDMINSTER   PTSUNNY   50  45  81 NW6       30.17S
PRINCE ALBERT  PTSUNNY   46  37  71 NW21G29   30.08R
REGINA         MOSUNNY   48  37  66 NW23G30   30.11R
YORKTON        CLOUDY    46  39  76 NW18G25   29.99R


USA.gov is the U.S. government's official web portal to all federal, state and local government web resources and services.